sat.trackr.live / text

‹ back to catalog

2025-313AA

NORAD 67272 · 2025-313AA

PAYLOAD ACTIVE UNKNOWN

§ Identity

Operator
Country
TBD
Launch date
2025-12-28
Launch site
VOSTO
Launch vehicle
Mass (kg)
RCS (m²)

External: N2YO · Heavens-Above · Gunter

§ Orbital elements

Epoch: 2026-09-20T22:44:57.035904Z

Period
94.40 min
Inclination
97.3856°
Eccentricity
0.0014350
Mean motion
15.25426089 rev/d
Perigee alt
479.7 km
Apogee alt
499.4 km
Semi-major
6,867.6 km
B*
2.4400e-4
RAAN
337.4928°
Arg perigee
33.4533°
Mean anomaly
326.7609°
Rev number
4,055

§ Raw data

2025-313AA1 67272U 25313AA  26263.94788236  .00006112  00000+0  24400-3 0  99962 67272  97.3856 337.4928 0014350  33.4533 326.7609 15.25426089 40553

JSON: /api/v1/satellites/67272 · /tle

For live sub-satellite position, see the globe view (requires WebGL).

§ Visibility from observer

Set your observer location to see the next 7 days of passes ≥ 10°. The values pass through the URL so the page stays shareable.

No JS? Fill the form by hand. The geolocation button needs JavaScript.